Showing default

SEDNA-2, 63153

Orbit data source: Space-Track

SEDNA-2, 63153 is a payload satellite owned by AAC ClydeSpace (US) in SSO that was launched on Tue, 14 Jan 2025 UTC via an FALCON 9 launch vehicle from the Air Force Western Test Range (AFWTR). Payload-class satellites include a variety of spacecraft equipped with specific instruments for various scientific and technological missions. These include communications satellites like Starlink; space stations such as the ISS; scientific satellites like the Hubble; Earth observation satellites from companies like Planet Labs, Umbra, and HawkEye 360; GPS; miniature CubeSats for education and research; and military/defense satellites.

Loading next visibility...
Identifier
63153, 2025-009DQ
Orbit
SSO
Country
Flag of USUS
Related business
Manufacturer
AAC ClydeSpace
Mission
Operational Commercial Communications
Bus & Motor
CUBESAT 1X4U, Unknown motor
Mass
~10 kg wet, ~10 kg dry
Launch date (UTC)
2025-01-14 (11 months ago)
Launch vehicle
FALCON 9
Launch site
Air Force Western Test Range (AFWTR)
Object type
Payload
Rocket body
Debris
Shape & HBR
Box, 0.4 m
Radar Cross Section
0.045 m², Medium (>0.1 m² and < 1m²)

Expand to show TLE details & history
Last TLE update: 13 hours ago

TLE from 13 hours ago
0 SEDNA-2
1 63153U 25009DQ  25340.46864357  .00014351  00000-0  91875-3 0  9998
2 63153  97.4776  53.8663 0010020  14.9929 345.1595 15.08630222 49035
Epoch: 2025-12-06T11:14Z
TLE epoch observation values (Epoch: 2025-12-06T11:14:50.804Z)
Latitude
-0.00001°
Longitude
169.65867°
Altitude
536.755 km
Speed
7.598 km/s
True Right ascension
03h 35m 27s
True Declination
0° 00' 00"
Sunlit
Object was in full shadow at epoch
Visualization orbit readout
Latitude
Unknown
Longitude
Unknown
Altitude
Unknown
Speed
Unknown
Apparent Right ascension
Unknown
Apparent Declination
Unknown
Sunlit
N/A
Visualization observer readout
Local Sidereal Time
21:57:13
Azimuth
Unknown
Elevation
Unknown
Doppler factor
Unknown
Orbital elements
Apogee altitude
544.298 km
Perigee altitude
530.439 km
Semi-major axis
6,915.506 km
Eccentricity
0.001
Inclination
97.4776°
RAAN
53.8663°
Arg. of periapsis
14.9929°
True anomaly
345.13006°
Mean anomaly
345.1595°
Eccentric anomaly
345.14478°
Mean motion
3.77405 °/min
Orbital period
95.39 mins
BSTAR
0.00091875
Loading maneuver chart data...
Computing Atmospheric mass density...
Loading historical data...
Loading historical data...
Loading historical data...
Loading historical data...
Loading historical data...
Loading historical data...
Loading historical data...

Documentation

Showing up to 5 results
|